Home > Weather > Detroit > Past weeks

Flag for USA Past Weather in Detroit, Michigan, USA — Yesterday and Last 2 Weeks

Now
78 °F

Sunny.


Feels Like: 80 °F
Forecast: 68 / 85 °F
Wind: 9 mph from South

Location: Detroit City Airport

Current Time: May 26, 2016 at 10:37:12 PM

Latest Report: May 26, 2016 at 9:53 PM


Visibility: 10 mi

Pressure: 29.89 "Hg

Humidity: 60%

Dew Point: 63 °F

Location of DetroitLocation

Past Weather in Detroit — Graph

°F

Detroit Temperature Yesterday

Maximum temperature yesterday: 85 °F (at 2:53 PM)
Minimum temperature yesterday: 65 °F (at 6:53 AM)
Average temperature yesterday: 75 °F

High & Low Weather Summary for the Past Weeks

 TemperatureHumidityPressure
High85 °F (May 25, 2:53 PM)93% (May 12, 8:53 PM)30.26 "Hg (May 12, 8:53 PM)
Low36 °F (May 15, 6:53 AM)21% (May 22, 6:53 PM)29.54 "Hg (May 14, 5:53 AM)
Average60 °F55%30.03 "Hg
* Reported May 11 8:53 PM — May 26 8:53 PM, Detroit, Weather by CustomWeather, © 2016

Note: Actual official high and low records may vary slightly from our data, if they occured in-between our weather recording intervals... More about our weather records

Advertising

Detroit Weather History for the Previous 24 Hours

Scroll right to see more
 ConditionsComfort  
Time TempWeatherWind HumidityBarometerVisibility
8:53 PM
Thu, May 26
80 °FPassing clouds.8 mph54%29.86 "Hg10 mi
7:53 PM82 °FPassing clouds.12 mph51%29.87 "Hg10 mi
6:53 PM83 °FPassing clouds.12 mph50%29.87 "Hg10 mi
5:53 PM84 °FSunny.10 mph48%29.87 "Hg10 mi
4:53 PM85 °FSunny.15 mph48%29.88 "Hg10 mi
3:53 PM83 °FPassing clouds.15 mph53%29.90 "Hg10 mi
2:53 PM83 °FSunny.14 mph55%29.92 "Hg10 mi
1:53 PM84 °FSunny.14 mph55%29.93 "Hg10 mi
12:53 PM81 °FSunny.15 mph56%29.95 "Hg10 mi
11:53 AM80 °FSunny.12 mph60%29.96 "Hg10 mi
10:53 AM78 °FSunny.10 mph64%29.96 "Hg10 mi
9:53 AM75 °FSunny.12 mph69%29.95 "Hg9 mi
8:53 AM73 °FSunny.7 mph71%29.98 "Hg8 mi
7:53 AM69 °FPartly sunny.5 mph81%29.97 "Hg7 mi
6:53 AM69 °FPassing clouds.5 mph81%29.95 "Hg9 mi
5:53 AM70 °FPassing clouds.6 mph73%29.94 "Hg10 mi
4:53 AM71 °FPassing clouds.8 mph71%29.96 "Hg10 mi
3:53 AM71 °FClear.9 mph68%29.96 "Hg10 mi
2:53 AM72 °FClear.7 mph64%29.96 "Hg10 mi
1:53 AM73 °FPassing clouds.13 mph62%29.97 "Hg10 mi
12:53 AM73 °FOvercast.10 mph59%29.98 "Hg10 mi
11:53 PM
Wed, May 25
73 °FPassing clouds.12 mph62%29.99 "Hg10 mi
10:53 PM75 °FMostly cloudy.12 mph54%30.00 "Hg10 mi
Weather by CustomWeather, © 2016

See weather overviewHow to use our weather pages